Location: Johnson City
(36.3130°N, 82.3540°W)
Time: 00:55:16
(UTC-05:00)

Envisat - Visible Passes

Search period start: 11 December 2018 00:00
Search period end: 21 December 2018 00:00
Orbit: 764 x 766 km, 98.2° (Epoch: 10 December)

Date Brightness Start Highest point End Pass type
(mag) Time Alt. Az. Time Alt. Az. Time Alt. Az.
11 Dec 2.9 19:25:16 10° SSE 19:30:21 87° W 19:35:27 10° NNW visible
12 Dec 3.3 18:49:02 10° SE 18:53:44 40° ENE 18:58:27 10° N visible
12 Dec 5.3 20:29:09 10° SW 20:32:51 20° W 20:36:35 10° NW visible
13 Dec 5.9 07:01:35 10° NE 07:04:51 17° E 07:08:05 10° SE visible
13 Dec 4.3 18:13:55 10° ESE 18:17:19 18° ENE 18:20:42 10° NNE visible
13 Dec 3.9 19:51:03 10° S 19:55:55 47° W 20:00:49 10° NNW visible
14 Dec 2.8 19:14:08 10° SSE 19:19:10 73° ENE 19:24:15 10° N visible
14 Dec 6.0 20:57:41 10° WSW 20:58:39 10° W 20:59:39 10° WNW visible
15 Dec 3.6 18:38:10 10° SE 18:42:36 32° ENE 18:47:03 10° N visible
15 Dec 4.9 20:17:23 10° SSW 20:21:35 26° W 20:25:48 10° NW visible
16 Dec 6.1 06:51:16 10° ENE 06:53:33 13° E 06:55:49 10° ESE visible
16 Dec 4.5 18:03:36 10° E 18:06:15 14° ENE 18:08:54 10° NNE visible
16 Dec 3.4 19:39:42 10° S 19:44:42 61° W 19:49:44 10° NNW visible
17 Dec 3.0 19:03:03 10° SSE 19:08:00 57° ENE 19:12:59 10° N visible
17 Dec 5.8 20:44:43 10° WSW 20:47:20 14° W 20:49:59 10° WNW visible
18 Dec 3.9 18:27:26 10° ESE 18:31:30 25° ENE 18:35:35 10° NNE visible
18 Dec 4.5 20:05:47 10° SSW 20:10:19 33° W 20:14:54 10° NNW visible
19 Dec 4.7 17:53:47 10° ENE 17:55:12 11° ENE 17:56:37 10° NE visible
19 Dec 3.0 19:28:26 10° S 19:33:29 79° WSW 19:38:35 10° NNW visible
20 Dec 3.2 18:52:04 10° SE 18:56:51 44° ENE 19:01:40 10° N visible
20 Dec 5.5 20:32:36 10° SW 20:36:03 18° W 20:39:31 10° NW visible
